Location: Quesnel
(52.9830°N, 122.4830°W)
Time: 11:48:01
(UTC-07:00)

ISS - All Passes

Search period start: 28 March 2015 00:00
Search period end: 07 April 2015 00:00
Orbit: 396 x 406 km, 51.6° (Epoch: 28 March)

Date Brightness Start Highest point End Pass type
(mag) Time Alt. Az. Time Alt. Az. Time Alt. Az.
28 Mar - 01:00:01 10° SSW 01:02:50 28° SSE 01:05:42 10° E night (unlit)
28 Mar - 02:35:43 10° WSW 02:38:57 65° S 02:42:11 10° E night (unlit)
28 Mar - 04:12:02 10° W 04:15:15 59° S 04:18:26 10° ESE visible
28 Mar - 05:48:40 10° W 05:51:16 22° SSW 05:53:51 10° SSE visible
29 Mar - 00:07:14 10° SSW 00:09:39 19° SSE 00:12:06 10° E night (unlit)
29 Mar - 01:42:26 10° WSW 01:45:38 54° SSE 01:48:49 10° E night (unlit)
29 Mar - 03:18:40 10° W 03:21:54 68° S 03:25:08 10° ESE visible
29 Mar - 04:55:08 10° W 04:58:03 32° SSW 05:00:59 10° SE visible
29 Mar - 23:14:57 10° S 23:16:29 13° SE 23:18:05 10° ESE night (unlit)
30 Mar - 00:49:12 10° SW 00:52:18 42° SSE 00:55:24 10° E night (unlit)
30 Mar - 02:25:17 10° W 02:28:32 71° S 02:31:46 10° E night (unlit)
30 Mar - 04:01:39 10° W 04:04:46 43° SSW 04:07:52 10° SE visible
30 Mar - 05:38:53 10° WSW 05:40:37 14° SW 05:42:16 10° S visible
30 Mar - 23:56:05 10° SW 23:59:00 30° SSE 00:01:55 10° E night (unlit)
31 Mar - 01:31:53 10° WSW 01:35:08 67° S 01:38:22 10° E night (unlit)
31 Mar - 03:08:12 10° W 03:11:25 56° SSW 03:14:36 10° ESE night (unlit)
31 Mar - 04:44:54 10° W 04:47:24 20° SSW 04:49:52 10° SSE visible
31 Mar - 23:03:10 10° SSW 23:05:42 21° SSE 23:08:16 10° E night (unlit)
01 Apr - 00:38:30 10° WSW 00:41:43 57° SSE 00:44:55 10° E night (unlit)
01 Apr - 02:14:45 10° W 02:18:00 66° S 02:21:13 10° ESE night (unlit)
01 Apr - 03:51:14 10° W 03:54:07 29° SSW 03:56:59 10° SE night (unlit)
01 Apr - 22:10:38 10° S 22:12:26 14° SE 22:14:18 10° ESE night (unlit)
01 Apr - 23:45:10 10° SW 23:48:18 44° SSE 23:51:26 10° E night (unlit)
02 Apr - 01:21:17 10° W 01:24:32 71° S 01:27:47 10° E night (unlit)
02 Apr - 02:57:39 10° W 03:00:45 41° SSW 03:03:49 10° SE night (unlit)
02 Apr - 04:35:06 10° WSW 04:36:33 12° SW 04:37:55 10° SSW night (unlit)
02 Apr - 22:51:55 10° SW 22:54:53 33° SSE 22:57:52 10° E night (unlit)
03 Apr - 00:27:48 10° WSW 00:31:02 68° S 00:34:17 10° E night (unlit)
03 Apr - 02:04:07 10° W 02:07:18 53° SSW 02:10:29 10° ESE night (unlit)
03 Apr - 03:40:53 10° W 03:43:16 19° SSW 03:45:36 10° SSE night (unlit)
03 Apr - 21:58:52 10° SSW 22:01:30 23° SSE 22:04:10 10° E visible
03 Apr - 23:34:19 10° WSW 23:37:32 60° SSE 23:40:45 10° E night (unlit)
04 Apr - 01:10:34 10° W 01:13:49 64° S 01:17:02 10° ESE night (unlit)
04 Apr - 02:47:04 10° W 02:49:54 27° SSW 02:52:42 10° SSE night (unlit)
04 Apr - 21:06:07 10° S 21:08:08 16° SE 21:10:12 10° ESE visible
04 Apr - 22:40:52 10° WSW 22:44:01 47° SSE 22:47:11 10° E visible
05 Apr - 00:17:01 10° W 00:20:16 70° S 00:23:31 10° E night (unlit)
05 Apr - 01:53:24 10° W 01:56:28 38° SSW 01:59:29 10° SE night (unlit)
05 Apr - 03:31:09 10° WSW 03:32:13 11° SW 03:33:12 10° SSW night (unlit)
05 Apr - 21:47:30 10° SW 21:50:32 35° SSE 21:53:33 10° E visible
05 Apr - 23:23:26 10° W 23:26:41 69° S 23:29:56 10° E visible
06 Apr - 00:59:46 10° W 01:02:57 51° SSW 01:06:06 10° ESE night (unlit)
06 Apr - 02:36:36 10° WSW 02:38:52 17° SW 02:41:04 10° S night (unlit)
06 Apr - 20:54:19 10° SSW 20:57:02 25° SSE 20:59:47 10° E visible
06 Apr - 22:29:51 10° WSW 22:33:05 62° S 22:36:19 10° E visible
